レモン彗星

C/2018 U1 ( Lemmon )

English version
Home page
Updated on January 23, 2021

---------------------------------------------------------------------

・ プロフィール

発見日 2018年10月27日
発見光度 20.0等
発見者 R. A. Kowalski (Mount Lemmon Survey)

・ 写真集

・ 軌道要素

Epoch 2021 Nov. 2.0 TT = JDT 2459520.5
T 2021 Nov. 3.07949 TT                                  Rudenko
q   4.9929348            (2000.0)            P               Q
z  -0.0002761      Peri.  180.46441     -0.25316515     -0.30190248
 +/-0.0000008      Node    75.48048     -0.88450412     +0.45706715
e   1.0013783      Incl.  108.29877     -0.39186715     -0.83662687
From 1496 observations 2018 Oct. 27-2020 Oct. 17, mean residual 0".4.

・ 星図

・ 光度変化

        m1 = 2.5 + 5 logΔ + 12.0 log r

---------------------------------------------------------------------

軌道要素はM.P.E.C. 2020-U96に掲載されたものです。
星図はステラナビゲータ Ver.10 (アストロアーツ) で作成したものです。
光度グラフはComet for Windowsで作成したものです。

---------------------------------------------------------------------

Copyright(C) Seiichi Yoshida (comet@aerith.net). All rights reserved.